TimeCST,TemperatureF,Dew PointF,Humidity,Sea Level PressureIn,VisibilityMPH,Wind Direction,Wind SpeedMPH,Gust SpeedMPH,PrecipitationIn,Events,Conditions,WindDirDegrees,DateUTC
12:53 AM,63.0,54.0,72,29.83,10.0,South,20.7,-,N/A,,Clear,180,2012-12-03 06:53:00
1:53 AM,60.1,53.1,78,29.81,10.0,South,19.6,-,N/A,,Clear,180,2012-12-03 07:53:00
2:53 AM,57.9,53.1,84,29.81,10.0,South,18.4,-,N/A,,Clear,180,2012-12-03 08:53:00
3:53 AM,57.0,54.0,89,29.79,10.0,South,20.7,-,N/A,,Clear,180,2012-12-03 09:53:00
4:53 AM,57.9,55.0,90,29.78,8.0,South,20.7,28.8,N/A,,Clear,190,2012-12-03 10:53:00
5:53 AM,57.0,55.0,93,29.77,6.0,South,21.9,32.2,N/A,,Clear,190,2012-12-03 11:53:00
6:53 AM,55.9,54.0,93,29.79,5.0,South,20.7,-,N/A,,Scattered Clouds,190,2012-12-03 12:53:00
7:53 AM,57.0,55.0,93,29.80,3.0,South,20.7,28.8,N/A,,Overcast,190,2012-12-03 13:53:00
8:01 AM,57.2,55.4,94,29.83,3.0,South,20.7,-,N/A,,Overcast,190,2012-12-03 14:01:00
8:53 AM,57.9,55.9,93,29.80,4.0,South,21.9,32.2,N/A,,Overcast,190,2012-12-03 14:53:00
9:13 AM,59.0,55.4,88,29.85,4.0,SSW,23.0,29.9,N/A,,Mostly Cloudy,200,2012-12-03 15:13:00
9:23 AM,60.8,55.4,82,29.85,5.0,SSW,23.0,-,N/A,,Scattered Clouds,210,2012-12-03 15:23:00
9:53 AM,62.1,55.0,78,29.81,7.0,SSW,25.3,33.4,N/A,,Clear,200,2012-12-03 15:53:00
10:53 AM,66.9,48.0,51,29.82,10.0,SW,20.7,31.1,N/A,,Clear,220,2012-12-03 16:53:00
11:53 AM,72.0,37.0,28,29.81,10.0,SW,18.4,28.8,N/A,,Clear,230,2012-12-03 17:53:00
12:53 PM,75.0,28.0,18,29.78,10.0,SW,11.5,-,N/A,,Clear,230,2012-12-03 18:53:00
1:53 PM,77.0,27.0,16,29.76,10.0,WSW,11.5,23.0,N/A,,Clear,240,2012-12-03 19:53:00
2:04 PM,78.8,26.6,15,29.82,2.5,SW,12.7,-,N/A,,Haze,230,2012-12-03 20:04:00
2:13 PM,78.8,26.6,15,29.81,10.0,WSW,11.5,18.4,N/A,,Clear,250,2012-12-03 20:13:00
2:53 PM,75.9,25.0,15,29.77,10.0,NW,13.8,-,N/A,,Clear,310,2012-12-03 20:53:00
3:53 PM,72.0,26.1,18,29.81,10.0,NNW,15.0,-,N/A,,Clear,340,2012-12-03 21:53:00
4:53 PM,66.9,28.0,23,29.85,10.0,North,18.4,-,N/A,,Clear,350,2012-12-03 22:53:00
5:53 PM,62.1,30.0,30,29.90,10.0,North,17.3,-,N/A,,Clear,360,2012-12-03 23:53:00
6:53 PM,60.1,36.0,41,29.95,10.0,North,17.3,-,N/A,,Clear,360,2012-12-04 00:53:00
7:53 PM,57.9,37.0,46,29.98,10.0,North,18.4,-,N/A,,Clear,360,2012-12-04 01:53:00
8:53 PM,55.9,37.9,51,30.01,10.0,North,16.1,-,N/A,,Clear,10,2012-12-04 02:53:00
9:53 PM,54.0,37.9,55,30.04,10.0,North,15.0,-,N/A,,Clear,360,2012-12-04 03:53:00
10:53 PM,54.0,37.9,55,30.05,10.0,North,15.0,-,N/A,,Clear,360,2012-12-04 04:53:00
11:53 PM,52.0,37.9,59,30.06,10.0,North,17.3,-,N/A,,Clear,360,2012-12-04 05:53:00